Skip Page Navigation
NASA JPL Caltech
NASA Logo - Jet Propulsion Laboratory + View the NASA Portal
+ Center for Near-Earth Object Studies
JPL Home Earth Solar System Stars & Galaxies Technology
JPL Solar System Dynamics
BODIES ORBITS EPHEMERIDES TOOLS PHYSICAL DATA DISCOVERY FAQ SITE MAP
JPL Small-Body Database Browser
Search: [ help ]  
58923 (1998 KJ62)
Classification: Main-belt Asteroid          SPK-ID: 2058923
Ephemeris | Orbit Diagram | Orbital Elements | Mission Design | Physical Parameters | Discovery Circumstances | Close-Approach Data ]

[ show orbit diagram ]
Orbital Elements at Epoch 2459000.5 (2020-May-31.0) TDB
Reference: JPL 17 (heliocentric ecliptic J2000)
 Element Value Uncertainty (1-sigma)   Units 
e .1627555716714695 6.2892e-08  
a 3.109975940446723 2.654e-08 au
q 2.6038100283748 1.8536e-07 au
i 22.30988054311224 8.8333e-06 deg
node 227.2344075827696 1.1516e-05 deg
peri 298.876487596437 2.8202e-05 deg
M 53.22411660396834 2.643e-05 deg
tp 2458704.330772999248
(2019-Aug-08.83077300)
0.00014585 TDB
period 2003.244553848007
5.48
2.5643e-05
7.021e-08
d
yr
n .1797084631072529 2.3004e-09 deg/d
Q 3.616141852518645 3.086e-08 au
  Orbit Determination Parameters
   # obs. used (total)      640  
   data-arc span      8117 days (22.22 yr)  
   first obs. used      1998-04-21  
   last obs. used      2020-07-11  
   planetary ephem.      DE431  
   SB-pert. ephem.      SB431-N16  
   condition code      0  
   norm. resid. RMS      .47732  
   source      ORB  
   producer      Otto Matic  
   solution date      2020-Nov-12 22:48:58  

Additional Information
 Earth MOID = 1.67752 au 
 Jupiter MOID = 1.63212 au 
 T_jup = 3.085 
[ show covariance matrix ]

Ephemeris | Orbit Diagram | Orbital Elements | Mission Design | Physical Parameters | Discovery Circumstances | Close-Approach Data ]

Physical Parameter Table
Parameter Symbol Value Units Sigma Reference Notes
absolute magnitude H 14.3   n/a MPO385195  
diameter diameter 6.886 km 0.420 urn:nasa:pds:neowise_diameters_albedos::2.0[mainbelt] (http://adsabs.harvard.edu/abs/2011ApJ...741...68M)  
geometric albedo albedo 0.094   0.013 urn:nasa:pds:neowise_diameters_albedos::2.0[mainbelt] (http://adsabs.harvard.edu/abs/2011ApJ...741...68M)  

58923 (1998 KJ62)          Discovered 1998-May-22 by LINEAR at Socorro
Reference: 20030614/Numbers.arcLast Updated: 2004-04-19

[ show close-approach data ]
Alternate Designations
 1998 KJ62 = 2001 UB160 
Ephemeris | Orbit Diagram | Orbital Elements | Mission Design | Physical Parameters | Discovery Circumstances | Close-Approach Data ]
ABOUT SSD CREDITS/AWARDS PRIVACY/COPYRIGHT GLOSSARY LINKS
FirstGov 2020-Nov-26 08:18 UT
(server date/time)  
NASA Home Page
Site Manager:   Ryan S. Park
Webmaster  Alan B. Chamberlin